Quakertown, PA

1:37 PM EST on November 19, 2017 (GMT -0500)
Quakertown

Weather History for KUKT - March, 2014

Change the Weather History Date:

Saturday, March 15, 2014

  Actual Average (KABE) Record (KABE)
Temperature  
Mean Temperature 47 °F -  
Max Temperature 53 °F 48 °F 79 °F (1990)
Min Temperature 39 °F 30 °F 8 °F (1993)
Degree Days  
Heating Degree Days 18    
Moisture  
Dew Point 26 °F    
Average Humidity 44    
Maximum Humidity 57    
Minimum Humidity 33    
Precipitation  
Precipitation 0.00 in - - ()
Sea Level Pressure  
Sea Level Pressure 29.86 in    
Wind  
Wind Speed 9 mph (SW)    
Max Wind Speed 17 mph    
Max Gust Speed 25 mph    
Visibility 10 miles    
Events      
Averages and records for this station are not official NWS values.
T = Trace of Precipitation, MM = Missing Value Source: NWS Daily Summary

Daily Weather History Graph

Daily Weather History Graph

Search for Another Location

Airport or City:

Trip Planner

Search our weather history database for the weather conditions in past years. The results will help you decide how hot, cold, wet, or windy it might be!

Date:

Astronomy

Mar. 15, 2014 Rise Set
Actual Time 7:13 AM EDT 7:08 PM EDT
Civil Twilight 6:45 AM EDT 7:35 PM EDT
Nautical Twilight 6:14 AM EDT 8:07 PM EDT
Astronomical Twilight 5:42 AM EDT 8:39 PM EDT
Moon 6:25 PM EDT (3/15) 6:23 AM EDT (3/15)
Length of Visible Light 12h 49m
Length of Day
11h 55m
Waxing Gibbous, 99% of the Moon is Illuminated
Mar 15
Waxing Gibbous
Mar 16
Full
Mar 23
Last Quarter
Mar 30
New
Apr 7
First Quarter

Hourly Weather History & Observations

Time (EDT) Temp. Windchill Dew Point Humidity Pressure Visibility Wind Dir Wind Speed Gust Speed Precip Events Conditions
12:15 AM 41.0 °F 35.8 °F 24.8 °F 53% 29.86 in 10.0 mi South 8.1 mph - N/A   Partly Cloudy
12:35 AM 41.0 °F 36.4 °F 24.8 °F 53% 29.85 in 10.0 mi South 6.9 mph - N/A   Clear
12:55 AM 41.0 °F 35.2 °F 24.8 °F 53% 29.84 in 10.0 mi South 9.2 mph - N/A   Clear
1:15 AM 41.0 °F 36.4 °F 24.8 °F 53% 29.83 in 10.0 mi South 6.9 mph - N/A   Clear
1:35 AM 42.8 °F 38.0 °F 24.8 °F 49% 29.82 in 10.0 mi South 8.1 mph - N/A   Clear
1:55 AM 42.8 °F 38.0 °F 24.8 °F 49% 29.83 in 10.0 mi South 8.1 mph - N/A   Clear
2:15 AM 44.6 °F 40.2 °F 24.8 °F 46% 29.81 in 10.0 mi South 8.1 mph 16.1 mph N/A   Clear
2:35 AM 44.6 °F 38.8 °F 24.8 °F 46% 29.80 in 10.0 mi South 11.5 mph 16.1 mph N/A   Clear
2:55 AM 44.6 °F 39.2 °F 24.8 °F 46% 29.79 in 10.0 mi South 10.4 mph - N/A   Clear
3:15 AM 44.6 °F 39.7 °F 24.8 °F 46% 29.79 in 10.0 mi South 9.2 mph - N/A   Clear
3:35 AM 44.6 °F 39.7 °F 24.8 °F 46% 29.78 in 10.0 mi South 9.2 mph - N/A   Clear
3:55 AM 44.6 °F 40.2 °F 24.8 °F 46% 29.77 in 10.0 mi South 8.1 mph - N/A   Clear
4:15 AM 44.6 °F 39.7 °F 24.8 °F 46% 29.77 in 10.0 mi South 9.2 mph - N/A   Clear
4:35 AM 44.6 °F 40.2 °F 24.8 °F 46% 29.77 in 10.0 mi South 8.1 mph - N/A   Partly Cloudy
4:55 AM 44.6 °F 40.2 °F 24.8 °F 46% 29.77 in 10.0 mi South 8.1 mph - N/A   Clear
5:15 AM 44.6 °F 40.2 °F 24.8 °F 46% 29.77 in 10.0 mi South 8.1 mph - N/A   Partly Cloudy
5:35 AM 44.6 °F 40.2 °F 24.8 °F 46% 29.77 in 10.0 mi South 8.1 mph - N/A   Mostly Cloudy
5:55 AM 44.6 °F 40.2 °F 24.8 °F 46% 29.77 in 10.0 mi South 8.1 mph - N/A   Overcast
6:15 AM 44.6 °F 40.7 °F 24.8 °F 46% 29.78 in 10.0 mi South 6.9 mph - N/A   Overcast
6:35 AM 44.6 °F 41.4 °F 24.8 °F 46% 29.78 in 10.0 mi SSW 5.8 mph - N/A   Overcast
6:55 AM 44.6 °F 41.4 °F 24.8 °F 46% 29.81 in 10.0 mi West 5.8 mph - N/A   Overcast
7:15 AM 44.6 °F 43.1 °F 26.6 °F 49% 29.81 in 10.0 mi SW 3.5 mph - N/A   Overcast
7:35 AM 44.6 °F 42.2 °F 26.6 °F 49% 29.81 in 10.0 mi SSW 4.6 mph - N/A   Overcast
7:55 AM 42.8 °F 40.1 °F 28.4 °F 57% 29.80 in 10.0 mi SSW 4.6 mph - N/A   Mostly Cloudy
8:15 AM 42.8 °F 38.6 °F 28.4 °F 57% 29.79 in 10.0 mi South 6.9 mph - N/A   Overcast
8:35 AM 44.6 °F 41.4 °F 26.6 °F 49% 29.80 in 10.0 mi SSW 5.8 mph - N/A   Mostly Cloudy
9:00 AM 44.6 °F 41.4 °F 28.4 °F 53% 29.80 in 10.0 mi SSW 5.8 mph - N/A   Mostly Cloudy
9:15 AM 46.4 °F 41.9 °F 28.4 °F 50% 29.80 in 10.0 mi South 9.2 mph - N/A   Scattered Clouds
9:35 AM 48.2 °F - 28.4 °F 46% 29.80 in 10.0 mi South 9.2 mph - N/A   Partly Cloudy
9:55 AM 50.0 °F - 28.4 °F 43% 29.80 in 10.0 mi SSW 10.4 mph - N/A   Partly Cloudy
10:15 AM 51.8 °F - 28.4 °F 41% 29.80 in 10.0 mi SSW 10.4 mph 16.1 mph N/A   Clear
10:35 AM 53.6 °F - 32.0 °F 44% 29.81 in 10.0 mi WSW 16.1 mph 25.3 mph N/A   Clear
10:55 AM 53.6 °F - 32.0 °F 44% 29.82 in 10.0 mi SW 16.1 mph 25.3 mph N/A   Mostly Cloudy
11:15 AM 51.8 °F - 32.0 °F 47% 29.83 in 10.0 mi WSW 10.4 mph 23.0 mph N/A   Mostly Cloudy
11:35 AM 51.8 °F - 30.2 °F 44% 29.83 in 10.0 mi SW 11.5 mph 17.3 mph N/A   Scattered Clouds
11:55 AM 53.6 °F - 28.4 °F 38% 29.83 in 10.0 mi SW 13.8 mph 20.7 mph N/A   Partly Cloudy
12:15 PM 53.6 °F - 28.4 °F 38% 29.84 in 10.0 mi WSW 10.4 mph 17.3 mph N/A   Mostly Cloudy
12:35 PM 51.8 °F - 26.6 °F 38% 29.85 in 10.0 mi WSW 12.7 mph 18.4 mph N/A   Overcast
1:00 PM 53.6 °F - 26.6 °F 35% 29.85 in 10.0 mi WSW 8.1 mph 20.7 mph N/A   Mostly Cloudy
1:15 PM 53.6 °F - 26.6 °F 35% 29.85 in 10.0 mi WSW 13.8 mph 18.4 mph N/A   Mostly Cloudy
1:35 PM 53.6 °F - 28.4 °F 38% 29.85 in 10.0 mi WSW 8.1 mph 20.7 mph N/A   Scattered Clouds
1:55 PM 53.6 °F - 30.2 °F 41% 29.85 in 10.0 mi West 11.5 mph 19.6 mph N/A   Partly Cloudy
2:15 PM 53.6 °F - 28.4 °F 38% 29.85 in 10.0 mi WSW 10.4 mph 20.7 mph N/A   Clear
2:35 PM 53.6 °F - 28.4 °F 38% 29.85 in 10.0 mi WSW 12.7 mph 24.2 mph N/A   Partly Cloudy
2:55 PM 53.6 °F - 28.4 °F 38% 29.85 in 10.0 mi WSW 12.7 mph 20.7 mph N/A   Partly Cloudy
3:15 PM 53.6 °F - 26.6 °F 35% 29.85 in 10.0 mi West 11.5 mph 21.9 mph N/A   Clear
3:35 PM 53.6 °F - 26.6 °F 35% 29.86 in 10.0 mi WSW 16.1 mph 25.3 mph N/A   Clear
3:55 PM 53.6 °F - 26.6 °F 35% 29.86 in 10.0 mi West 16.1 mph 20.7 mph N/A   Clear
4:15 PM 53.6 °F - 26.6 °F 35% 29.86 in 10.0 mi WSW 9.2 mph 17.3 mph N/A   Clear
4:35 PM 53.6 °F - 24.8 °F 33% 29.87 in 10.0 mi WSW 17.3 mph 24.2 mph N/A   Clear
4:55 PM 53.6 °F - 24.8 °F 33% 29.87 in 10.0 mi WSW 13.8 mph 23.0 mph N/A   Clear
5:15 PM 53.6 °F - 24.8 °F 33% 29.87 in 10.0 mi WSW 13.8 mph 24.2 mph N/A   Clear
5:35 PM 53.6 °F - 24.8 °F 33% 29.88 in 10.0 mi WSW 13.8 mph 19.6 mph N/A   Clear
5:55 PM 53.6 °F - 24.8 °F 33% 29.89 in 10.0 mi WSW 6.9 mph - N/A   Clear
6:15 PM 51.8 °F - 24.8 °F 35% 29.90 in 10.0 mi WSW 12.7 mph 18.4 mph N/A   Clear
6:35 PM 50.0 °F - 24.8 °F 37% 29.91 in 10.0 mi WSW 11.5 mph 17.3 mph N/A   Clear
6:55 PM 50.0 °F - 24.8 °F 37% 29.92 in 10.0 mi WSW 10.4 mph - N/A   Clear
7:15 PM 48.2 °F - 23.0 °F 37% 29.94 in 10.0 mi WSW 5.8 mph - N/A   Clear
7:35 PM 48.2 °F - 23.0 °F 37% 29.95 in 10.0 mi WSW 5.8 mph - N/A   Clear
7:55 PM 46.4 °F 41.5 °F 24.8 °F 43% 29.96 in 10.0 mi West 10.4 mph - N/A   Clear
8:15 PM 46.4 °F 42.9 °F 23.0 °F 40% 29.97 in 10.0 mi WSW 6.9 mph 17.3 mph N/A   Clear
8:35 PM 46.4 °F 42.4 °F 23.0 °F 40% 29.99 in 10.0 mi WSW 8.1 mph 18.4 mph N/A   Clear
8:55 PM 44.6 °F 41.4 °F 23.0 °F 43% 29.99 in 10.0 mi WSW 5.8 mph - N/A   Clear
9:15 PM 44.6 °F 40.7 °F 23.0 °F 43% 30.00 in 10.0 mi West 6.9 mph - N/A   Clear
9:35 PM 44.6 °F 40.2 °F 23.0 °F 43% 30.00 in 10.0 mi West 8.1 mph - N/A   Clear
9:55 PM 44.6 °F 40.2 °F 23.0 °F 43% 30.01 in 10.0 mi WSW 8.1 mph 16.1 mph N/A   Clear
10:15 PM 42.8 °F 38.6 °F 24.8 °F 49% 30.02 in 10.0 mi West 6.9 mph - N/A   Clear
10:35 PM 42.8 °F 40.1 °F 24.8 °F 49% 30.03 in 10.0 mi West 4.6 mph - N/A   Clear
10:55 PM 41.0 °F 36.4 °F 24.8 °F 53% 30.03 in 10.0 mi West 6.9 mph - N/A   Clear
11:15 PM 41.0 °F 36.4 °F 24.8 °F 53% 30.03 in 10.0 mi West 6.9 mph - N/A   Clear
11:35 PM 41.0 °F 35.8 °F 24.8 °F 53% 30.03 in 10.0 mi West 8.1 mph 17.3 mph N/A   Clear
11:55 PM 39.2 °F 33.0 °F 24.8 °F 56% 30.04 in 10.0 mi West 9.2 mph - N/A   Clear